Location: Asheville, NC
(35.6000°N, 82.5500°W)
Time: 01:19:47
(UTC-05:00)

Vanguard 2 - Pass Details

Date: 11 December 2017
Orbit: 553 x 2940 km, 32.9° (Epoch: 20 January)

Event Time Altitude Azimuth Distance (km) Brightness Sun altitude
Rises 19:45:01 0° 271° (W) 2,984 11.7 -29.2°
Reaches altitude 10° 19:47:33 10° 266° (W) 1,927 10.5 -29.7°
Enters shadow 19:49:58 30° 248° (WSW) 1,009 8.6 -30.2°
